Glasgow, United Kingdom

10:40 PM BST on July 25, 2017 (GMT +0100)
Glasgow

Weather History for EGPF - January, 2012

Change the Weather History Date:

Saturday, January 28, 2012

  Actual Average Record
Temperature  
Mean Temperature 30 °F -  
Max Temperature 35 °F 44 °F 51 °F (2007)
Min Temperature 26 °F 32 °F 26 °F (1998)
Degree Days  
Heating Degree Days 34    
Moisture  
Dew Point 30 °F    
Average Humidity 96    
Maximum Humidity 100    
Minimum Humidity 87    
Precipitation  
Precipitation 0.00 in - - ()
Sea Level Pressure  
Sea Level Pressure 30.43 in    
Wind  
Wind Speed 1 mph ()    
Max Wind Speed 5 mph    
Max Gust Speed -    
Visibility 5.0 miles    
Events Fog    
Averages and records for this station are not official NWS values.
T = Trace of Precipitation, MM = Missing Value Source: Averaged Metar Reports

Daily Weather History Graph

Daily Weather History Graph

Search for Another Location

Airport or City:

Trip Planner

Search our weather history database for the weather conditions in past years. The results will help you decide how hot, cold, wet, or windy it might be!

Date:

Astronomy

Jan. 28, 2012 Rise Set
Actual Time 8:20 AM GMT 4:41 PM GMT
Civil Twilight 7:38 AM GMT 5:23 PM GMT
Nautical Twilight 6:53 AM GMT 6:08 PM GMT
Astronomical Twilight 6:09 AM GMT 6:52 PM GMT
Moon 9:26 AM GMT (1/28) 11:32 PM GMT (1/28)
Length of Visible Light 9h 44m
Length of Day
8h 21m
Waxing Crescent, 26% of the Moon is Illuminated
Jan 28
Waxing Crescent
Jan 31
First Quarter
Feb 7
Full
Feb 14
Last Quarter
Feb 21
New

Hourly Weather History & Observations

Time (GMT) Temp. Windchill Dew Point Humidity Pressure Visibility Wind Dir Wind Speed Gust Speed Precip Events Conditions
12:20 AM 28.4 °F - 26.6 °F 93% 30.30 in - Variable 2.3 mph - N/A   Clear
12:50 AM 26.6 °F 21.2 °F 26.6 °F 100% 30.30 in - WSW 4.6 mph - N/A   Clear
1:20 AM 26.6 °F - 26.6 °F 100% 30.33 in - Variable 2.3 mph - N/A   Clear
1:50 AM 28.4 °F 23.3 °F 26.6 °F 93% 30.33 in - SW 4.6 mph - N/A   Clear
2:20 AM 26.6 °F - 26.6 °F 100% 30.33 in 6.2 mi Calm Calm - N/A   Unknown
2:50 AM 26.6 °F - 24.8 °F 93% 30.36 in 6.2 mi Calm Calm - N/A   Unknown
3:20 AM 26.6 °F - 26.6 °F 100% 30.36 in 3.7 mi Calm Calm - N/A   Unknown
3:50 AM 26.6 °F - 26.6 °F 100% 30.36 in - Variable 2.3 mph - N/A   Mist
4:20 AM 26.6 °F - 24.8 °F 93% 30.36 in - Calm Calm - N/A   Mist
4:50 AM 26.6 °F - 26.6 °F 100% 30.36 in - Calm Calm - N/A   Clear
5:20 AM 26.6 °F - 26.6 °F 100% 30.39 in - East 2.3 mph - N/A   Clear
5:50 AM 26.6 °F - 24.8 °F 93% 30.39 in 6.2 mi Calm Calm - N/A Fog Shallow Fog
6:20 AM 26.6 °F - 26.6 °F 100% 30.39 in 5.6 mi Calm Calm - N/A   Unknown
6:50 AM 26.6 °F - 26.6 °F 100% 30.39 in 5.6 mi Calm Calm - N/A   Unknown
7:20 AM 26.6 °F - 26.6 °F 100% 30.42 in 5.6 mi Variable 2.3 mph - N/A   Unknown
7:50 AM 28.4 °F - 28.4 °F 100% 30.42 in - Variable 2.3 mph - N/A   Clear
8:20 AM 28.4 °F - 26.6 °F 93% 30.42 in - Calm Calm - N/A   Clear
8:50 AM 26.6 °F - 26.6 °F 100% 30.42 in - Variable 2.3 mph - N/A   Clear
9:20 AM 28.4 °F - 28.4 °F 100% 30.45 in - Calm Calm - N/A   Clear
9:50 AM 28.4 °F - 28.4 °F 100% 30.45 in 5.6 mi Calm Calm - N/A   Scattered Clouds
10:20 AM 30.2 °F - 28.4 °F 93% 30.45 in 6.2 mi ESE 2.3 mph - N/A   Scattered Clouds
10:50 AM 30.2 °F - 30.2 °F 100% 30.45 in 6.2 mi Variable 2.3 mph - N/A   Scattered Clouds
11:20 AM 32.0 °F - 30.2 °F 93% 30.45 in 6.2 mi Calm Calm - N/A   Mostly Cloudy
11:50 AM 32.0 °F - 32.0 °F 100% 30.45 in 6.2 mi Calm Calm - N/A   Mostly Cloudy
12:20 PM 32.0 °F - 32.0 °F 100% 30.45 in 6.2 mi Calm Calm - N/A   Mostly Cloudy
12:50 PM 33.8 °F - 32.0 °F 93% 30.45 in 6.2 mi Calm Calm - N/A   Overcast
1:20 PM 33.8 °F - 32.0 °F 93% 30.45 in 5.6 mi Variable 2.3 mph - N/A   Mostly Cloudy
1:50 PM 35.6 °F - 32.0 °F 87% 30.45 in 6.2 mi Calm Calm - N/A   Mostly Cloudy
2:20 PM 35.6 °F - 32.0 °F 87% 30.48 in 6.2 mi Calm Calm - N/A   Mostly Cloudy
2:50 PM 35.6 °F - 33.8 °F 93% 30.48 in 6.2 mi NNE 2.3 mph - N/A   Mostly Cloudy
3:20 PM 35.6 °F - 33.8 °F 93% 30.48 in 5.6 mi Calm Calm - N/A   Mostly Cloudy
3:50 PM 35.6 °F - 33.8 °F 93% 30.48 in 5.6 mi Calm Calm - N/A   Mostly Cloudy
4:20 PM 35.6 °F - 33.8 °F 93% 30.48 in 5.6 mi NE 2.3 mph - N/A   Mostly Cloudy
4:50 PM 33.8 °F - 32.0 °F 93% 30.48 in 5.6 mi Calm Calm - N/A   Scattered Clouds
5:20 PM 33.8 °F - 32.0 °F 93% 30.48 in 5.0 mi West 2.3 mph - N/A   Scattered Clouds
5:50 PM 33.8 °F - 32.0 °F 93% 30.48 in 4.3 mi West 2.3 mph - N/A   Mostly Cloudy
6:20 PM 33.8 °F - 32.0 °F 93% 30.48 in 3.7 mi SW 2.3 mph - N/A   Scattered Clouds
6:50 PM 33.8 °F - 32.0 °F 93% 30.48 in 3.1 mi SW 2.3 mph - N/A   Mostly Cloudy
7:20 PM 33.8 °F - 32.0 °F 93% 30.48 in 3.1 mi West 2.3 mph - N/A   Mostly Cloudy
7:50 PM 33.8 °F - 32.0 °F 93% 30.48 in 3.1 mi Calm Calm - N/A   Mostly Cloudy
8:20 PM 33.8 °F - 33.8 °F 100% 30.48 in 4.3 mi Variable 2.3 mph - N/A   Mostly Cloudy
8:50 PM 33.8 °F 30.8 °F 32.0 °F 93% 30.48 in 4.3 mi East 3.5 mph - N/A   Mostly Cloudy
9:20 PM 33.8 °F - 32.0 °F 93% 30.48 in 3.7 mi ENE 2.3 mph - N/A   Mostly Cloudy
9:50 PM 33.8 °F 30.8 °F 33.8 °F 100% 30.48 in 3.7 mi East 3.5 mph - N/A   Mostly Cloudy
10:20 PM 33.8 °F 30.8 °F 33.8 °F 100% 30.48 in 3.7 mi ENE 3.5 mph - N/A   Mostly Cloudy
10:50 PM 33.8 °F 30.8 °F 33.8 °F 100% 30.48 in 3.7 mi NE 3.5 mph - N/A   Mostly Cloudy
11:20 PM 33.8 °F - 33.8 °F 100% 30.48 in 3.7 mi ENE 2.3 mph - N/A   Mostly Cloudy
11:50 PM 33.8 °F - 33.8 °F 100% 30.48 in 3.7 mi East 2.3 mph - N/A   Mostly Cloudy